Hourly Data Report for July 27, 2021

CARBERRY CS
MANITOBA
Current Station Operator: ECCC - MSC

49°54'20.900" N
99°21'26.800" W
383.50 m
5010547
71170
WZE

Download Data

Hourly Data (July 2021)
Hourly Data Report for July 27, 2021
TIME
LST
Temp Definition
°C
Dew Point Definition
°C
Rel Hum Definition
%
Precip. Amount Definition
mm

Wind Dir Definition
10's deg

Wind Spd Definition
km/h
Visibility Definition
km
Stn Press Definition
kPa
Hmdx Definition


Wind Chill Definition


Weather Definition


00:00 14.7 12.5 87 0.0 8 5   96.94     LegendNANA
01:00 12.6 11.2 91 0.0   0   96.97     LegendNANA
02:00 12.3 12.3 100 0.0 7 4   96.96     LegendNANA
03:00 11.7 11.7 100 0.0 0 1   96.99     LegendNANA
04:00 10.3 10.2 100 0.0   0   97.01     LegendNANA
05:00 10.1 10.0 100 0.0   0   97.03     LegendNANA
06:00 10.6 10.6 100 0.0 0 1   97.06     LegendNANA
07:00 14.2 14.2 100 0.0   0   97.10     LegendNANA
08:00 18.5 14.5 78 0.0 21 7   97.11     LegendNANA
09:00 21.6 14.7 65 0.0 15 10   97.05 25   LegendNANA
10:00 24.8 13.8 51 0.0 15 11   97.00 28   LegendNANA
11:00 26.9 11.5 38 0.0 14 14   96.98 29   LegendNANA
12:00 27.8 11.9 37 0.0 17 10   96.97 30   LegendNANA
13:00 29.0 11.2 33 0.0 16 9   96.92 31   LegendNANA
14:00 30.2 11.1 31 0.0 16 15   96.86 32   LegendNANA
15:00 30.8 10.8 29 0.0 16 16   96.81 32   LegendNANA
16:00 30.9 12.9 33 0.0 16 18   96.79 34   LegendNANA
17:00 30.6 13.2 35 0.0 15 15   96.75 34   LegendNANA
18:00 29.6 14.3 39 0.0 16 16   96.72 33   LegendNANA
19:00 27.5 15.0 46 0.0 15 14   96.67 31   LegendNANA
20:00 24.2 15.3 58 0.0 14 11   96.63 28   LegendNANA
21:00 21.8 14.9 65 0.0 14 10   96.65 26   LegendNANA
22:00 20.3 15.1 72 0.0 13 9   96.61     LegendNANA
23:00 19.4 15.2 77 0.0 13 7   96.57     LegendNANA

Notes on Data Quality.

Legend

  • E = Estimated
  • M = Missing
  • NA = Not Available*
  • [empty] = Indicates an unobserved value
Date modified: